Helicity
5 31 45 53 47 69 33 29 11 28 -0 166 160 99 238 111 56 70 138 155 125 170 189 172 263 331 309 154 165 163 164 164 186 221 217 182 188 112 149 140 155 146 171 179
27 11 10 10 28 19 44 68 52 25 17 216 143 80 191 174 122 77 159 154 167 162 273 223 252 253 177 149 148 150 152 149 156 177 158 171 124 188 198 179 182 136 146 160
18 12 -25 -0 46 82 41 44 71 56 25 62 171 102 107 195 146 95 113 116 153 227 258 225 217 211 176 144 142 149 149 155 185 207 267 259 192 139 123 150 163 171 153 165
27 -4 -15 24 39 37 116 22 44 61 24 111 70 152 118 203 189 171 147 183 200 284 207 186 208 211 186 143 152 157 153 143 158 146 168 133 115 154 233 187 141 144 143 131
32 19 21 40 30 21 71 86 106 57 76 48 37 97 90 230 205 118 169 211 232 287 222 189 207 201 234 204 137 147 139 146 152 87 137 177 311 212 194 162 131 103 102 108
55 9 7 36 32 30 21 40 105 110 77 99 55 92 72 81 257 176 136 177 218 308 279 206 200 228 280 243 275 239 207 221 222 248 228 255 200 194 144 89 87 85 78 85
56 44 32 26 78 63 66 56 98 161 250 263 116 19 146 47 154 246 147 218 251 350 343 255 253 277 287 288 266 239 239 229 241 249 270 250 211 185 167 102 84 69 68 82
111 80 38 51 66 66 50 62 111 140 154 190 129 174 179 115 40 184 300 209 300 383 357 264 259 284 280 280 251 227 235 232 223 243 234 224 191 149 147 133 124 127 106 81
81 100 32 17 47 45 54 94 49 72 48 83 93 53 55 91 121 16 230 330 434 546 377 278 234 296 305 301 253 275 248 238 233 233 222 183 218 190 183 184 152 127 91 76
157 267 72 5 58 56 50 43 87 99 88 102 89 134 58 65 101 98 59 322 514 457 365 350 376 256 301 293 263 285 250 240 243 248 228 227 236 180 128 128 138 139 136 100
180 195 129 144 45 49 39 67 63 54 72 110 83 90 40 44 10 127 49 350 528 413 374 484 448 413 306 331 348 274 249 273 271 265 233 232 190 161 143 146 122 121 111 108
188 136 180 178 78 61 31 42 31 92 112 81 82 82 8 41 47 61 45 325 270 304 406 554 402 394 350 313 292 261 261 296 286 246 263 230 197 161 154 143 142 128 138 138
179 216 173 120 107 118 58 35 49 52 50 74 86 75 43 5 -16 -16 65 203 377 480 459 534 546 392 362 316 278 239 286 281 254 281 241 230 198 177 169 157 148 152 151 141
148 152 159 143 179 83 64 98 53 40 74 65 72 71 46 30 46 3 30 84 212 546 489 495 516 395 348 259 228 236 265 229 219 269 232 217 188 177 166 154 143 144 131 140
96 152 194 174 189 135 115 146 114 164 175 82 82 72 51 32 24 19 50 186 97 403 370 502 535 451 469 290 316 267 237 222 215 247 218 215 208 186 169 165 163 157 155 147
236 169 145 145 156 267 138 119 185 120 133 116 117 80 24 27 30 19 15 76 151 404 239 453 514 502 411 383 364 279 248 219 234 219 210 221 223 198 188 186 188 187 187 150
148 158 130 64 131 174 129 55 62 161 105 47 60 50 22 29 36 45 29 193 41 320 295 348 477 547 497 440 361 285 243 250 242 219 230 239 220 206 202 206 187 189 168 154
49 72 93 83 114 158 90 103 86 85 70 40 29 47 73 54 41 45 23 111 36 153 212 382 458 496 518 425 366 283 263 242 231 247 251 232 246 232 212 197 191 185 173 164
88 47 97 116 116 115 145 111 149 94 114 54 144 130 70 53 3 35 43 43 81 132 291 465 541 588 532 512 420 317 285 252 240 254 268 247 249 242 234 216 206 190 173 158
18 116 84 93 115 88 23 67 123 114 103 -4 132 140 223 225 75 55 19 55 116 131 313 411 398 459 508 533 528 415 311 269 256 285 279 255 250 250 249 244 213 187 172 174
150 173 98 107 95 102 76 133 119 137 7 129 178 246 290 429 270 258 192 53 58 231 236 273 320 382 487 595 546 433 326 272 261 289 267 269 257 260 260 255 230 210 188 171
64 126 110 43 74 115 35 103 127 130 108 18 111 206 377 518 458 474 372 172 191 231 156 156 239 341 480 638 643 537 402 307 284 275 260 272 263 269 273 274 243 210 214 202
117 108 91 65 81 85 194 288 41 283 326 283 -14 87 279 493 753 563 464 399 299 55 140 141 235 345 438 550 560 542 454 407 365 316 281 268 278 289 296 299 263 237 225 193
103 100 106 140 30 23 6 27 115 10 133 225 424 53 93 291 723 722 507 566 437 136 41 49 160 283 385 463 520 514 493 474 447 370 312 309 328 367 313 278 244 240 201 177
71 67 112 28 -77 117 90 43 21 52 18 106 203 224 76 91 452 917 452 626 610 490 216 78 113 246 328 472 529 560 517 528 501 398 366 348 367 389 330 305 275 224 283 161
85 63 91 -84 47 66 85 89 94 97 110 42 88 115 150 64 189 667 388 526 634 529 470 199 146 199 302 436 532 589 598 571 540 454 386 384 426 395 388 472 528 532 309 325
Wind_Speed
38 56 70 63 64 84 81 88 87 73 71 51 56 53 42 38 39 39 40 38 35 33 25 22 20 16 15 18 19 17 16 17 17 19 21 23 24 23 27 32 34 36 37 38
35 67 60 62 71 75 79 92 98 90 74 53 56 62 43 45 45 43 41 43 40 35 32 30 26 23 21 19 17 15 13 12 14 18 19 20 16 23 26 29 32 33 35 37
19 46 49 58 69 79 84 87 90 94 71 55 54 67 42 44 46 49 46 43 46 43 39 36 32 29 22 20 15 13 12 14 19 19 18 19 19 18 21 25 30 32 33 36
30 32 42 62 66 67 86 75 81 90 93 64 67 75 55 51 53 54 53 45 42 42 40 38 34 30 25 20 16 15 14 14 14 12 14 11 14 16 21 24 25 30 32 34
42 36 37 56 75 62 81 77 80 86 98 79 72 78 77 62 67 58 56 54 46 41 41 40 37 31 27 19 15 12 13 14 12 10 12 14 17 17 19 21 23 25 29 31
57 52 51 44 56 60 65 70 79 89 89 108 100 78 85 73 63 57 56 60 53 42 37 39 35 31 29 24 20 17 16 17 17 17 14 14 12 13 16 16 19 22 25 28
62 61 52 51 52 55 59 65 83 91 101 107 99 104 86 73 62 56 55 54 57 50 42 36 36 41 33 27 24 22 18 17 14 14 15 13 13 13 13 14 15 16 20 24
69 69 47 43 52 56 56 53 78 92 97 102 95 116 121 76 76 51 48 47 52 54 49 44 43 39 39 32 25 23 19 16 12 10 10 11 11 11 11 12 13 16 18 21
73 94 76 61 43 42 52 76 61 76 88 92 97 94 107 88 76 96 51 50 53 48 45 45 42 43 40 35 31 25 19 16 14 10 10 9 11 10 9 11 12 14 15 18
61 86 67 72 60 48 51 60 70 68 96 105 105 103 98 79 79 74 73 61 61 54 47 42 39 37 41 37 32 29 25 21 17 13 13 12 9 7 6 7 9 11 15 17
63 71 79 76 72 64 58 67 72 80 78 92 108 107 92 88 80 60 51 48 58 56 49 40 41 37 33 38 38 33 28 23 19 16 15 12 9 5 5 6 7 9 12 15
58 66 83 85 79 83 82 84 69 72 95 88 91 110 89 82 73 65 78 40 43 49 42 36 38 39 39 32 30 29 25 19 16 16 13 10 7 7 6 6 6 8 11 15
62 64 85 94 87 87 91 86 77 87 84 89 102 102 74 106 93 77 66 40 46 52 45 37 34 42 42 39 34 28 23 19 16 12 11 10 10 9 9 8 6 7 10 13
62 69 80 96 93 86 84 87 95 90 88 89 86 107 104 91 93 86 65 63 42 46 44 39 36 37 41 39 34 31 26 21 18 15 14 13 13 12 10 7 6 6 8 11
64 86 85 97 100 103 98 95 87 90 92 95 95 98 103 97 99 79 77 43 54 43 45 45 39 37 39 41 37 33 30 25 21 18 17 16 15 13 10 9 7 6 7 10
75 91 85 108 102 102 111 102 95 85 83 91 97 106 97 81 93 95 67 63 42 57 50 41 33 34 40 41 39 37 34 30 25 22 19 18 16 13 13 11 9 7 7 9
93 90 93 118 100 103 112 113 102 100 87 85 92 90 98 97 85 93 83 57 84 36 46 50 42 37 38 39 35 38 38 33 29 24 21 20 18 16 14 11 9 6 5 7
91 89 90 108 97 116 112 96 101 102 104 98 95 90 94 89 85 82 86 44 54 60 41 43 42 38 36 36 34 36 38 37 33 28 24 21 19 17 14 12 9 5 3 6
65 77 85 95 103 107 112 94 94 88 98 79 73 73 76 77 77 78 87 71 66 51 41 40 38 36 34 34 37 39 41 40 38 33 27 23 20 18 16 13 10 6 3 5
57 55 72 85 97 111 115 98 101 96 107 66 64 67 67 71 70 69 73 73 55 40 36 35 37 35 38 39 39 43 46 46 42 36 30 26 21 18 16 13 11 7 4 5
76 68 70 82 90 98 92 89 84 98 94 46 51 56 64 67 68 72 60 54 63 31 37 32 37 42 43 42 39 42 46 48 41 36 31 27 23 19 16 13 11 8 5 4
78 77 71 62 82 106 66 65 65 60 57 61 56 56 62 68 66 62 54 45 38 41 33 39 42 46 46 47 43 39 43 42 41 38 34 28 24 20 17 15 12 9 7 6
78 70 72 64 71 69 70 72 57 57 62 62 61 67 65 70 68 63 57 54 53 40 42 31 42 46 52 49 53 45 37 40 40 39 35 31 26 21 18 16 14 12 9 10
97 90 94 93 108 94 73 52 68 69 65 67 71 65 69 75 72 68 60 55 53 48 39 42 42 53 53 53 49 46 43 40 41 41 38 33 28 22 18 16 15 13 13 13
88 90 97 116 115 96 94 86 74 70 76 76 83 78 74 75 72 72 66 64 60 60 56 46 47 45 51 52 51 48 47 45 45 45 42 36 29 24 20 18 17 16 21 19
80 93 96 125 97 100 104 98 95 95 94 94 93 93 87 79 80 79 71 69 66 65 67 61 46 47 48 49 49 48 48 51 51 50 46 40 34 26 23 19 18 15 17 15
Wind_Direction
287 273 263 265 262 259 261 258 258 262 262 242 249 257 247 245 245 240 238 238 236 239 243 244 250 257 279 290 292 298 302 309 315 321 325 329 330 342 346 345 353 358 356 354
293 269 274 272 267 263 260 258 256 261 262 247 253 260 243 243 244 243 237 240 237 237 239 246 251 256 271 278 283 291 304 315 320 326 332 335 348 344 347 350 355 2 3 357
230 291 282 276 269 264 261 258 257 257 265 271 251 255 247 243 247 248 246 242 240 236 242 246 249 254 261 266 269 281 294 302 309 318 332 337 345 353 353 355 353 358 2 359
286 294 287 275 274 268 262 264 264 260 256 259 255 258 247 247 253 247 245 241 239 237 244 247 247 250 257 261 268 277 288 297 307 317 326 336 336 337 345 352 358 359 1 1
287 287 287 281 271 275 266 270 267 264 259 262 257 257 257 243 250 244 244 244 242 236 241 244 247 250 254 259 260 272 281 293 298 302 315 323 336 346 351 353 359 8 6 5
283 287 285 288 285 278 275 272 268 264 263 254 253 256 257 251 244 246 248 246 245 237 233 241 246 245 250 259 266 273 279 291 298 306 314 321 330 342 344 355 358 2 8 6
282 277 278 282 285 283 277 270 263 260 254 255 254 255 256 256 251 248 247 243 240 237 237 232 233 242 246 250 259 265 272 280 293 301 311 319 329 339 349 357 2 9 11 5
281 277 270 271 268 275 274 269 261 259 258 259 258 254 254 257 266 255 247 239 239 239 238 235 236 238 243 245 249 256 259 270 280 294 306 318 331 338 355 8 9 2 6 5
277 272 277 282 269 260 266 266 272 268 269 268 262 264 260 261 256 261 250 230 229 232 234 236 236 238 239 241 247 250 251 261 269 281 296 307 325 344 359 2 2 359 12 13
285 280 277 272 288 272 267 274 269 264 261 262 262 261 261 260 258 259 264 232 229 229 231 234 235 231 237 241 245 247 251 258 264 270 281 294 312 335 358 360 3 358 8 17
292 279 274 274 265 274 275 271 268 272 270 264 263 261 262 266 270 263 245 221 222 226 227 228 233 228 225 239 243 243 244 248 256 264 270 275 285 302 331 339 352 3 13 17
294 282 273 269 274 272 273 270 271 266 264 268 271 264 265 264 268 287 267 212 216 220 217 217 223 224 229 229 226 229 231 233 240 249 256 259 260 265 285 302 328 356 5 14
294 280 275 271 270 270 267 269 272 270 272 266 266 266 272 256 262 270 282 236 220 215 219 207 208 224 230 229 226 220 221 222 217 221 230 234 237 248 262 276 299 345 358 7
294 279 274 269 270 275 276 273 267 268 268 269 268 264 261 264 262 264 277 258 256 203 215 212 213 219 226 221 219 223 223 217 211 207 208 219 229 239 245 257 280 315 344 356
286 276 278 274 272 270 273 273 273 271 270 265 265 265 262 265 261 271 270 256 271 204 215 219 220 211 216 213 218 220 219 207 200 204 205 216 228 232 238 248 268 301 336 356
286 278 280 272 273 272 268 268 268 271 270 270 271 263 264 271 264 262 275 268 249 235 223 210 205 199 207 214 217 215 212 204 196 203 209 216 221 224 233 245 261 287 327 355
280 278 278 270 275 273 266 258 262 264 269 273 271 274 264 265 270 261 266 261 261 213 210 221 214 204 208 219 209 212 209 203 202 207 212 214 215 219 227 237 249 273 313 348
276 275 275 272 274 263 262 265 263 265 264 268 273 272 270 270 272 269 262 267 261 256 230 223 219 217 218 217 209 207 209 211 212 215 214 213 210 212 216 223 230 245 301 343
270 272 273 268 266 269 265 262 259 261 265 279 281 282 284 286 282 277 263 270 268 257 231 215 212 217 213 205 207 208 211 214 217 216 208 204 205 201 204 211 211 225 261 327
293 267 268 268 267 263 260 265 260 264 263 283 284 283 287 289 275 274 271 267 271 244 229 209 202 208 202 199 199 203 208 214 213 210 208 206 203 200 201 204 203 220 247 307
283 284 270 266 265 266 267 270 269 257 258 285 284 285 284 282 285 284 293 276 270 227 231 216 208 207 203 200 199 209 214 216 216 212 211 206 201 198 204 200 213 212 232 274
278 275 275 281 271 260 273 273 265 271 280 276 283 283 287 286 292 291 290 289 269 252 241 230 216 209 210 206 204 207 212 210 215 213 212 208 209 214 212 203 208 214 231 252
277 278 280 277 270 278 284 278 279 282 277 279 278 277 285 284 285 290 288 287 291 255 246 232 226 220 222 215 217 216 211 205 201 206 208 208 212 214 208 208 209 219 228 249
273 275 275 276 255 269 277 289 279 284 280 276 278 281 277 278 281 283 286 284 286 280 259 251 236 230 225 220 219 217 214 208 205 204 206 207 205 207 205 216 220 228 233 244
278 277 274 263 257 274 271 276 284 279 276 274 271 275 275 274 273 277 280 279 279 281 280 255 244 230 229 223 221 218 214 211 209 211 212 207 208 202 208 225 237 236 265 259
278 274 270 247 273 274 270 274 276 276 274 271 270 267 269 275 275 278 277 275 276 279 278 271 243 237 229 220 219 217 213 213 212 212 214 212 212 209 217 224 250 269 263 271